Regional Weather Roundup
Issued by NWS Upton, NY

Current Version | Previous Version | Graphics & Text | Print | Product List | Glossary Off
Versions: 1 2 3 4 5 6 7 8 9 10 11 12 13 14 15 16 17 18 19 20 21 22 23 24 25 26 27 28 29 30 31 32 33 34 35 36 37 38 39 40 41 42 43 44 45 46 47 48 49 50

556
ASUS41 KOKX 200408
RWROKX

REGIONAL WEATHER ROUNDUP
NATIONAL WEATHER SERVICE NEW YORK NY
1100 PM EST SUN FEB 19 2017

NOTE: "FAIR" INDICATES FEW OR NO CLOUDS BELOW 12,000 FEET WITH NO
SIGNIFICANT WEATHER AND/OR OBSTRUCTIONS TO VISIBILITY.

NYZ071-072-176-178-NJZ106-104-200500-
NEW YORK CITY METRO AREA

CITY           SKY/WX    TMP DP  RH WIND       PRES   REMARKS
Central Park   CLEAR     55  31  39 NW6       29.99R
Wall St Helipt NOT AVBL
LaGuardia APRT CLEAR     53  33  46 NW9       29.96S
Kennedy INTL   CLEAR     53  32  44 NW9       29.98R
Breezy Point     N/A     54 N/A N/A NW13        N/A
Newark/Liberty CLEAR     55  31  39 NW12      29.97R
Teterboro      CLEAR     52  32  46 NW6       29.97R
$$

NYZ177-179-078>081-200500-
LONG ISLAND NEW YORK

CITY           SKY/WX    TMP DP  RH WIND       PRES   REMARKS
Jones Beach      N/A     52 N/A N/A NW10        N/A
Matinecock PT  NOT AVBL
Farmingdale    CLEAR     50  29  44 NW3       29.96R
MacArthur/ISP  CLEAR     43  30  60 N5        29.95R
Shirley        CLEAR     38  31  76 N3        29.96R
Westhampton    CLEAR     31  24  75 NW3       29.97R
Southampton    NOT AVBL
Bridgehampton  NOT AVBL
East Hampton     N/A     43  30  59 NW3       29.94R
Montauk          N/A     47  33  58 NW7       29.94R
$$

NYZ052-065-067-200500-
HUDSON VALLEY

CITY           SKY/WX    TMP DP  RH WIND       PRES   REMARKS
White Plains   CLEAR     47  30  51 NW9       29.95R
Newburgh       MOCLDY    48  36  61 NW8       29.98R
Montgomery     CLEAR     49  33  54 NW8       29.97R
Poughkeepsie   CLEAR     36  29  75 W3        29.96S
Albany         MOCLDY    43  31  62 NW6       29.98R
$$

NJZ001-105-106-008-010-013-015-019>022-104-200500-
NEW JERSEY

CITY           SKY/WX    TMP DP  RH WIND       PRES   REMARKS
Newark/Liberty CLEAR     55  31  39 NW12      29.97R
Teterboro      CLEAR     52  32  46 NW6       29.97R
Caldwell       CLEAR     51  32  48 NW6       29.99R
Somerville     CLEAR     37  31  78 CALM      29.98R
Linden         NOT AVBL
Sussex         CLEAR     45  34  65 N6        30.00R
Andover          N/A     46  31  55 N3        30.00R
Trenton        CLEAR     46  34  62 N3        29.99R
Millville      CLEAR     42  36  79 W7        29.98R
Atlantic City  CLEAR     47  34  60 W5        29.96S
Wrightstown    CLEAR     45  35  67 N6        29.95R
Toms River     CLEAR     38  31  76 CALM      29.97R
Belmar         CLEAR     52  34  50 N9        29.98R
$$

PAZ047>061-062-071-200500-
EASTERN PENNSYLVANIA

CITY           SKY/WX    TMP DP  RH WIND       PRES   REMARKS
Philadelphia   CLEAR     54  33  45 NW9       29.99R
Allentown      CLEAR     50  31  48 N9        30.00R
Scranton       CLEAR     48  32  53 N7        30.02R
$$

CTZ002-004>006-009-010-012-RIZ004-006-007-MAZ004-011-015-200500-
SOUTHERN NEW ENGLAND
 IN CT

CITY           SKY/WX    TMP DP  RH WIND       PRES   REMARKS
Bradley INTL   PTCLDY    43  30  60 W9        29.94R
Hartford       CLEAR     48  31  51 NW6       29.95R
Danbury        CLEAR     31  27  85 SW5       29.97R WCI  26
Wtrbury/Oxford PTCLDY    46  28  49 NW8       29.96S
Bridgeport     CLEAR     50  30  46 N6        29.96R
Meriden        PTCLDY    50  30  46 NW12      29.95R
New Haven      CLEAR     47  33  58 NW5       29.95R
Chester          N/A     50  30  46 NW10G16   29.94R
Groton         CLEAR     51  30  44 NW17G28   29.92R
Wilimantic     PTCLDY    48  31  51 W8        29.94R

 IN RI

CITY           SKY/WX    TMP DP  RH WIND       PRES   REMARKS
Providence     CLEAR     46  30  53 W9        29.90R
Block Island   CLEAR     51  32  48 NW17G29   29.90F
Westerly       CLEAR     52  28  39 NW9G18    29.93R
 IN MA

CITY           SKY/WX    TMP DP  RH WIND       PRES   REMARKS
Boston         CLOUDY    49  33  54 NW8       29.90R
Worcester      CLOUDY    41  29  62 W8        29.89R
Westfield      CLOUDY    45  32  60 W10       29.93R
Provincetown   CLOUDY    46  36  68 NW8       29.88R
Nantucket      CLEAR     45  31  58 NW8       29.87R
$$

ANZ330-335-338-340-345-350-353-355-200500-
COASTAL MARINE OBSERVATIONS


STATION/POSITION TIME  SKY/WX   TEMP    WIND        PRES    VSBY  WAVE
                                AIR SEA DIR/SP/G                  HT/PER
                 (UTC)          (F)     (DEG/KT/KT) (MB)    (MI)  (FT/S)
NY HARB ENTRANCE 0250            50 43  340/  8/ 10 1013.9          2/ 7
20 S FIRE ISLAND 0350            47 40  350/  8/ 10 1013.9          3/ 8
GREAT SOUTH BAY  NOT AVBL
23 SSW MONTAUK P 0250            47 44              1013.6          3/ 8
15 E BARNEGAT LI 0330               43                N/A           3/ 7
HUDSON CANYON    0250               51              1013.5          3/ 7
KINGS POINT      0348            49 38              1014.5
EXECUTION ROCKS  NOT AVBL
CENTRAL LI SOUND 0330            42     310/  6/  8   N/A           1
EASTERN LI SOUND NOT AVBL
ROBBINS REEF     0348            55     330/  7/  9 1015.2
$$


>>>>>>>>>>>>>>>>>>>>>>>>>>>> KEY <<<<<<<<<<<<<<<<<<<<<<<<<<<
>                                                          <
>     SKY/WX - Sky Condition/Present Weather               <
>     TMP    - Temperature in Fahrenheit                   <
>     DP     - Dew Point in Fahrenheit                     <
>     RH     - Relative Humidity in Percent                <
>     WIND   - Direction (from) and Speed in MPH           <
>     PRES   - Mean Sea Level Pressure (inches of Hg)      <
>     WCI    - Wind Chill Index                            <
>     VSB    - VISIBILITY IN MILES                         <
>     HX     - HEAT INDEX                                  <
>     TC     - TEMPERATURE IN CELSIUS                      <
>     VRB    - VARIABLE WIND DIRECTION                     <
>                                                          <
>>>>>>>>>>>>>>>>>>>>>>>>>>>> KEY <<<<<<<<<<<<<<<<<<<<<<<<<<<




USA.gov is the U.S. government's official web portal to all federal, state and local government web resources and services.